KBRY

Details ICAO KBRY
Name SAMUELS FLD
Region United States
Timezone America/New_York (UTC-4.0)
Plans Departing 0
Arriving 1
Stats Elevation 669 ft / 204 m (AMSL)
Location 37.814323° -85.499638°
Runways 1
Magnetic Variation 4.961° W
Sunrise 2018-05-22 10:28:14 UTC / 2018-05-22 06:28:14 Local
Sunset 2018-05-23 00:51:59 UTC / 2018-05-22 20:51:59 Local
Advertisement - Login to hide

Runways

ID Width Length Bearing (true) Bearing (mag) Surface Threshold Offset Overrun Length
02 75 ft / 23 m 5,011 ft / 1,527 m 21.43° 26.39° Asphalt 0 ft / 0 m 0 ft / 0 m
20 75 ft / 23 m 5,011 ft / 1,527 m 201.44° 206.40° Asphalt 0 ft / 0 m 0 ft / 0 m

Map

Weather


0- 5 10 15 20 25 30 35+ Temperature / ° C

Clouds and Precipitation
Forecast for 2018-05-22 12:00 UTC. Updated 2 hours ago

Ground ~20,000 ft ~40,000 ft Winds

METAR

KBRY 221235Z AUTO 00000KT 10SM CLR 20/19 A3006 RMK AO1

TAF

Not found

Frequencies

Recorded 119.92 MHz AWOS 3
Approach 123.67 MHz LOUISVILLE APP/DEP
Unicom 122.80 MHz CTAF/UNICOM
Approach 132.07 MHz LOUISVILLE APP/DEP
Warning: Do not use this data for real-world aviation or navigation. No guarantee of current accuracy is given.